SCP
1 1 0 0 0 0 0 0 0 0 0 0 0 0 0 1 0 0 0 0 0 0 0 0 0 0 0 1 1 1 1 0 0 0 0 0 0 0
1 1 0 0 0 0 0 0 0 0 0 0 0 0 0 0 0 0 0 0 0 0 0 0 0 0 0 0 0 1 1 0 0 0 0 0 0 0
1 1 0 0 0 0 0 0 0 0 0 0 0 0 0 0 0 0 0 0 0 0 0 0 0 0 0 0 0 0 0 0 0 0 0 0 0 0
1 1 0 0 0 0 0 0 0 0 0 0 0 0 0 0 0 0 0 0 0 0 0 0 0 0 0 0 0 0 0 0 0 0 0 0 0 0
1 0 0 0 0 0 0 0 0 0 0 0 0 0 0 0 0 0 0 0 0 0 0 0 0 0 0 0 0 0 0 0 0 0 0 0 0 0
0 0 0 0 0 0 0 0 0 0 0 0 0 0 0 0 0 0 0 0 0 0 0 0 0 0 0 0 0 0 0 0 0 0 0 0 0 0
0 0 0 0 0 0 0 0 0 0 0 0 0 0 0 0 0 0 0 0 0 0 0 0 0 0 0 0 0 0 0 0 0 0 0 0 0 0
0 0 0 0 0 0 0 0 0 0 0 0 0 0 0 0 0 0 0 0 0 0 0 0 0 0 0 0 0 0 0 0 0 0 0 0 0 0
0 0 0 0 0 0 0 0 0 0 0 0 0 0 0 0 0 0 0 0 0 0 0 0 0 0 0 0 0 0 0 0 0 0 0 0 0 0
0 0 0 0 0 0 0 0 0 0 0 0 0 0 0 0 0 0 0 0 0 0 0 0 0 0 0 0 0 0 0 0 0 0 0 0 0 0
0 0 0 0 0 0 0 0 0 0 0 0 0 0 0 0 0 0 0 0 0 0 0 0 0 0 0 0 0 0 0 0 0 0 0 0 0 0
0 0 0 0 0 0 0 0 0 0 0 0 0 0 0 0 0 0 0 0 0 0 0 0 0 0 0 0 0 0 0 0 0 0 0 0 0 0
0 0 0 0 0 0 0 0 0 0 0 0 0 0 0 0 0 0 0 0 0 0 0 0 0 0 0 0 0 0 0 0 0 0 0 0 0 0
0 0 0 0 0 0 0 0 0 0 0 0 0 0 0 0 0 0 0 0 0 0 0 0 0 0 0 0 0 0 0 0 0 0 0 0 0 0
0 0 0 0 0 0 0 0 0 0 0 0 0 0 0 0 0 0 0 0 0 0 0 0 0 0 0 0 0 0 0 0 0 0 0 0 0 0
0 0 0 0 0 0 0 0 0 0 0 0 0 0 0 0 0 0 0 0 0 0 0 0 0 0 0 0 0 0 0 0 0 0 0 0 0 0
0 0 0 0 0 0 0 0 0 0 0 0 0 0 0 0 0 0 0 0 0 0 0 0 0 0 0 0 0 0 0 0 0 0 0 0 0 0
0 0 0 0 0 0 0 0 0 0 0 0 0 0 0 0 0 0 0 0 0 0 0 0 0 0 0 0 0 0 0 0 0 0 0 0 0 0
0 0 0 0 0 0 0 0 0 0 0 0 0 0 0 0 0 0 0 0 0 0 0 0 0 0 0 0 0 0 0 0 0 0 0 0 0 0
0 0 0 0 0 0 0 0 0 0 0 0 0 0 0 0 0 0 0 0 0 0 0 0 0 0 0 0 0 0 0 0 0 0 0 0 0 0
0 0 0 0 0 0 0 0 0 0 0 0 0 0 0 0 0 0 0 0 0 0 0 0 0 0 0 0 0 0 0 0 0 0 0 0 0 0
0 0 0 0 0 0 0 0 0 0 0 0 0 0 0 0 0 0 0 0 0 0 0 0 0 0 0 0 0 0 0 0 0 0 0 0 0 0
0 0 0 0 0 0 0 0 0 0 0 0 0 0 0 0 0 0 0 0 0 0 0 0 0 0 0 0 0 0 0 0 0 0 0 0 0 0
Wind_Speed
3 4 3 3 2 2 2 2 2 2 2 1 1 1 1 1 4 3 3 5 7 6 6 7 7 8 8 7 7 7 6 6 7 7 8 8 9 9
3 3 3 2 2 2 2 2 2 2 2 2 1 2 2 2 4 3 3 6 5 6 6 6 7 7 7 7 7 7 5 6 6 7 8 8 8 9
3 3 4 3 2 2 2 2 2 2 2 2 1 1 1 2 3 2 2 2 2 5 5 7 7 7 7 7 6 6 5 5 6 7 8 8 8 9
4 3 3 2 3 2 2 2 2 2 2 2 1 1 2 2 3 3 3 3 2 5 6 7 7 7 7 7 7 7 5 5 5 6 7 8 8 9
3 3 2 2 3 2 2 2 1 1 1 1 1 1 1 2 3 4 3 2 3 4 5 6 7 7 7 8 7 7 6 5 5 6 7 8 8 8
2 2 2 2 3 2 2 2 1 1 1 1 1 1 1 2 2 3 4 3 3 3 4 5 7 7 7 8 9 8 7 5 5 6 7 7 7 7
1 1 1 2 2 1 1 2 2 2 1 1 1 1 1 2 2 2 3 3 3 2 3 4 4 3 4 6 7 8 8 6 6 6 6 6 7 7
1 0 0 1 2 2 2 1 0 1 2 1 1 1 1 1 2 2 2 3 3 3 3 4 2 3 3 3 7 9 9 8 7 6 6 6 7 7
1 1 0 1 1 1 1 3 2 2 0 1 2 2 2 2 1 2 2 2 3 4 3 3 2 3 3 4 8 8 9 9 9 8 7 7 7 6
1 2 1 1 1 0 1 1 1 1 1 0 1 2 1 1 1 1 1 2 2 3 2 2 2 2 4 4 7 8 9 10 9 8 8 8 7 7
1 1 1 1 1 1 2 2 1 2 3 3 2 2 2 2 2 1 1 2 2 3 2 1 2 3 3 3 5 9 11 11 10 9 8 8 8 7
0 0 0 1 0 1 2 2 1 1 2 3 3 3 3 3 4 2 0 1 2 2 2 2 2 3 3 3 3 5 6 9 11 11 10 9 8 4
1 0 0 1 1 2 2 2 1 2 2 2 2 2 2 2 3 3 2 1 1 2 2 2 2 2 2 4 4 4 4 4 5 6 8 9 9 6
1 1 1 2 2 3 3 3 4 3 2 2 2 2 2 3 3 3 3 3 2 1 2 2 1 2 2 3 3 4 4 4 4 4 4 8 8 8
1 2 3 4 4 3 4 5 4 2 2 2 2 2 2 2 2 2 3 3 3 3 3 3 2 2 2 2 3 4 4 4 3 4 4 4 4 4
2 3 4 5 4 4 4 3 2 2 2 2 2 1 1 2 2 2 2 3 3 4 4 4 3 2 2 3 2 3 3 3 4 4 4 4 4 3
2 2 2 2 2 2 2 2 2 2 2 2 2 1 2 2 2 3 2 2 2 3 4 4 4 3 2 2 2 2 3 3 3 4 4 5 4 4
3 2 2 2 2 1 1 1 2 2 2 2 1 1 1 2 2 2 2 2 2 3 3 4 4 4 3 3 2 2 3 3 4 4 4 4 5 4
3 2 2 1 1 1 1 1 1 1 1 1 1 1 1 1 2 2 2 2 2 3 3 3 3 3 4 4 4 4 3 4 4 4 4 3 4 5
2 2 2 1 1 1 1 2 2 1 1 1 1 1 1 1 1 2 2 2 2 2 3 3 3 3 2 2 3 4 6 4 3 4 4 4 4 6
1 1 1 1 1 1 1 1 1 1 1 1 1 1 1 1 1 1 1 2 2 2 2 3 4 5 2 2 2 4 4 6 5 3 3 3 4 4
1 1 1 1 1 1 1 1 1 1 1 1 0 1 1 1 1 1 1 2 2 2 2 3 4 3 2 2 3 4 5 6 7 7 5 2 2 2
1 1 1 1 1 1 1 1 1 1 1 0 0 0 1 1 1 1 1 2 2 2 2 3 3 3 3 2 2 3 5 6 5 5 5 7 6 5
Wind_Direction
240 242 244 252 251 248 238 207 210 241 268 275 301 301 331 320 319 321 311 316 328 329 335 335 331 326 319 315 318 314 309 311 310 309 309 308 308 310
241 237 242 247 254 247 236 232 214 192 236 258 281 303 324 328 329 326 310 327 326 330 339 343 340 333 328 323 318 317 309 311 313 310 307 307 308 311
245 237 241 233 241 249 240 231 221 183 216 282 293 313 309 320 328 322 318 311 312 337 343 348 346 347 343 331 322 325 316 317 319 315 311 308 309 309
241 234 235 226 231 241 228 223 217 195 183 240 285 307 307 312 328 332 335 344 340 344 349 351 353 353 351 342 333 331 320 320 321 318 317 314 313 314
226 230 231 212 223 232 221 212 211 193 168 189 274 296 307 338 348 340 338 348 350 354 1 359 354 350 353 350 346 343 328 327 325 321 320 320 318 315
223 226 239 231 222 218 215 203 190 165 156 165 265 299 320 349 355 344 341 349 343 350 1 353 346 350 357 354 353 348 336 327 327 327 324 321 319 318
216 219 274 287 282 269 247 209 187 175 168 170 221 313 334 349 343 331 330 336 335 357 346 338 335 336 347 346 348 350 350 340 332 329 327 325 322 319
179 195 293 298 299 316 312 306 246 177 178 184 227 242 280 306 321 319 324 338 333 346 342 325 333 330 330 330 347 353 354 348 340 333 331 328 322 318
174 194 282 322 325 276 354 23 13 9 344 185 196 230 252 259 272 304 319 334 314 314 326 309 324 328 324 332 345 349 352 351 347 342 335 330 325 324
181 193 199 243 255 208 105 79 36 11 350 204 193 236 247 252 252 279 293 336 322 320 327 309 323 322 324 324 340 350 350 351 348 347 347 346 341 339
181 193 200 223 261 80 111 104 63 26 12 10 18 17 13 25 38 62 32 17 342 324 334 332 322 325 317 319 337 349 350 350 351 349 350 350 349 345
129 188 241 173 46 89 121 126 108 56 40 35 36 35 37 38 31 39 38 19 343 314 331 343 327 337 327 321 330 337 342 347 351 351 353 355 353 348
124 108 218 99 67 80 87 117 91 68 71 69 58 45 35 27 18 12 3 353 317 299 311 333 322 329 318 313 321 328 338 335 341 346 352 355 353 350
145 133 95 74 89 83 71 72 72 66 71 74 66 47 32 18 10 4 4 9 359 316 314 324 312 316 322 317 312 321 329 335 343 345 341 346 349 346
121 110 87 71 69 71 74 71 66 69 77 75 58 37 17 5 9 8 9 16 19 12 359 343 327 318 314 305 306 315 323 333 347 347 339 342 339 337
84 88 77 76 73 71 65 52 50 59 74 81 65 38 23 18 21 7 1 3 12 3 360 358 346 334 327 305 302 312 324 329 337 336 331 331 339 340
102 88 83 87 79 71 60 54 56 52 50 55 70 56 37 26 15 4 6 10 18 360 351 353 352 344 315 304 320 326 329 332 328 331 336 336 336 338
101 96 99 103 98 88 77 60 57 55 52 52 56 56 44 28 16 7 9 18 20 6 355 344 346 349 351 359 352 331 337 331 330 334 336 332 332 339
93 102 103 101 101 100 99 91 73 60 59 52 50 48 42 30 19 10 8 13 13 3 348 341 348 357 357 346 335 352 339 328 332 336 337 329 318 321
82 103 112 109 110 117 109 97 90 74 63 53 47 46 44 31 12 3 359 359 359 354 347 345 350 350 338 313 305 315 327 322 328 331 328 321 308 310
83 92 103 110 107 109 111 106 103 96 81 72 51 26 14 12 1 352 352 352 355 348 342 335 326 331 322 330 328 322 323 333 331 317 319 326 331 337
85 94 98 104 111 115 116 114 106 102 97 86 65 15 351 339 336 334 342 342 336 334 328 322 326 340 353 352 336 325 326 331 341 347 344 333 328 332
107 108 105 105 107 113 124 128 125 127 135 140 96 333 337 341 339 336 331 332 331 334 339 338 342 349 348 341 332 328 331 334 337 346 345 353 349 328